Flag for Canada Weather past 2 weeks in Colchester County, Nova Scotia, Canada

Now
77 °F

Scattered clouds.


Feels Like: 79 °F
Forecast: 58 / 71 °F
Wind: 10 mph from Northwest

Location: Halifax International Airport

Current Time: Jul 29, 2015 at 5:34:13 PM

Latest Report: Jul 29, 2015 at 5:00 PM


Visibility: 15 mi

Pressure: 29.85 "Hg

Humidity: 47%

Dew point: 55 °F

Location of Colchester CountyLocation

Historic Weather in Colchester County — Graph

°F

Colchester County temperature yesterday

Maximum temperature yesterday: 70 °F (at 11:00 AM)
Minimum temperature yesterday: 63 °F (at 12:00 AM)
Average temperature yesterday: 65 °F

Past Weeks' High & Low Weather Summary

 TemperatureHumidityPressure
High77 °F (Jul 14, 4:00 PM)100% (Jul 14, 11:00 PM)30.16 "Hg (Jul 14, 11:00 PM)
Low54 °F (Jul 17, 2:00 AM)33% (Jul 17, 5:00 PM)29.52 "Hg (Jul 22, 6:00 PM)
Average63 °F86%29.88 "Hg
* Reported Jul 14 4:00 PM — Jul 29 4:00 PM, Colchester County, Weather by CustomWeather, © 2015

Note: Actual official high and low records may vary slightly from our data, if they occured in-between our weather recording intervals... More about our weather records

Advertising

Colchester County weather history for previous 24 hours

 ConditionsComfort  
Time TempWeatherWind HumidityBarometerVisibility
4:00 PM
Wed, Jul 29
77 °FScattered clouds.12 mph51%29.85 "Hg15 mi
3:00 PM77 °FWarm.13 mph57%29.86 "Hg15 mi
2:00 PM73 °FScattered clouds.9 mph65%29.86 "Hg15 mi
1:00 PM70 °FPartly sunny.8 mph78%29.88 "Hg15 mi
12:00 PM66 °FLow clouds.2 mph88%29.89 "Hg15 mi
11:00 AM64 °FLow clouds.7 mph94%29.90 "Hg15 mi
10:00 AM64 °FLow clouds.5 mph88%29.90 "Hg15 mi
9:00 AM64 °FLow clouds.7 mph94%29.90 "Hg12 mi
8:00 AM63 °FScattered clouds.8 mph100%29.90 "Hg10 mi
7:00 AM61 °FFog.8 mph100%29.91 "Hg0 mi
6:00 AM63 °FFog.7 mph94%29.91 "Hg0 mi
5:49 AM63 °FFog.9 mph94%29.92 "Hg1 mi
5:00 AM63 °FFog.7 mph94%29.91 "Hg1 mi
4:00 AM63 °FFog.7 mph100%29.91 "Hg1 mi
3:00 AM63 °FFog.7 mph100%29.92 "Hg0 mi
2:00 AM63 °FFog.7 mph100%29.93 "Hg1 mi
1:52 AM63 °FFog.6 mph100%29.93 "Hg1 mi
1:00 AM63 °FFog.8 mph100%29.94 "Hg2 mi
12:00 AM63 °FFog.7 mph100%29.95 "Hg2 mi
11:45 PM
Tue, Jul 28
63 °FFog.6 mph100%29.95 "Hg2 mi
11:00 PM64 °FFog.8 mph94%29.96 "Hg6 mi
10:00 PM63 °FMostly cloudy.7 mph100%29.95 "Hg8 mi
9:47 PM64 °FMostly cloudy.5 mph94%29.95 "Hg15 mi
9:00 PM66 °FMostly cloudy.9 mph88%29.94 "Hg15 mi
8:00 PM66 °FMostly cloudy.8 mph94%29.95 "Hg15 mi
7:00 PM68 °FMostly cloudy.10 mph88%29.95 "Hg15 mi
6:00 PM68 °FMostly cloudy.10 mph88%29.95 "Hg15 mi
5:00 PM68 °FMostly cloudy.8 mph88%29.95 "Hg15 mi
Weather by CustomWeather, © 2015

See weather overviewHow to use our weather pages